Regional Weather Roundup
Issued by NWS Mobile, AL

Home | Current Version | Previous Version | Text Only | Print | Product List | Glossary On
Versions: 1 2 3 4 5 6 7 8 9 10 11 12 13 14 15 16 17 18 19 20 21 22 23 24 25 26 27 28 29 30 31 32 33 34 35 36 37 38 39 40 41 42 43 44 45 46 47 48 49 50
000
ASUS44 KMOB 300312
RWRMOB
REGIONAL WEATHER ROUNDUP
NATIONAL WEATHER SERVICE MOBILE AL
1000 PM CDT SUN MAR 29 2015

NOTE: "FAIR" INDICATES FEW OR NO CLOUDS BELOW 12,000 FEET WITH NO
      SIGNIFICANT WEATHER AND/OR OBSTRUCTIONS TO VISIBILITY.

  * THESE STATIONS ARE PART OF THE UNIVERSITY OF SOUTH ALABAMA
    MESONET AND ARE NOT UNDER NWS OR FAA QUALITY CONTROL.

ALZ061>064-300400-
COASTAL ALABAMA

CITY           SKY/WX    TMP DP  RH WIND       PRES   REMARKS
MOBILE REG APT MOCLDY    61  57  87 SE9       30.25F
BROOKLEY FIELD CLOUDY    63  57  81 SE7       30.26F
USA CAMPUS*      N/A     61  57  88 SE6       30.26S
DOG RIVER*     NOT AVBL


CITY           SKY/WX    TMP DP  RH WIND       PRES   REMARKS
MOUNT VERNON*    N/A     57  52  82 CALM      30.26S
SARALAND*      NOT AVBL
BAY MINETTE*   NOT AVBL
LOXLEY*          N/A     57  54  88 E3        30.27S
ROBERTSDALE*     N/A     57  55  94 CALM      30.27R
FAIRHOPE*        N/A     59  55  88 CALM      30.26S
ELBERTA*         N/A     63  59  88 CALM      30.27R
FOLEY*         NOT AVBL
GRAND BAY*       N/A     63  59  88 SE5       30.23F
DAUPHIN ISLND* NOT AVBL
BON SCOUR NWR* NOT AVBL
GULF SHORES    CLOUDY    66  60  81 S7        30.28R

$$

ALZ051>060-300400-
INTERIOR SOUTHWEST AND SOUTH CENTRAL ALABAMA

CITY           SKY/WX    TMP DP  RH WIND       PRES   REMARKS
GREENVILLE     CLEAR     59  47  64 S7        30.26R
EVERGREEN      CLEAR     55  49  80 S8        30.27F
CASTLEBERRY*   NOT AVBL
ATMORE*          N/A     55  52  88 SE6       30.29R
DIXIE*           N/A     57  48  72 CALM      30.26S
ANDALUSIA/OPP  CLEAR     59  45  59 VRB5      30.29
ANDALUSIA*       N/A     55  48  76 S6        30.28S
FLORALA APT    PTCLDY    54  47  77 S3        30.32R
FLORALA*         N/A     52  46  82 CALM      30.28R

$$

FLZ001>006-300400-
WESTERN FLORIDA PANHANDLE

CITY           SKY/WX    TMP DP  RH WIND       PRES   REMARKS
PENSACOLA      PTCLDY    63  57  81 S8        30.28S
NAS PENSACOLA  CLOUDY    66  59  78 S12       30.28R
MILTON         CLEAR     53  48  83 E3        30.29S
WHTNG S FIELD  CLEAR     58  50  75 SE7       30.29S


CITY           SKY/WX    TMP DP  RH WIND       PRES   REMARKS
WALNUT HILL*   NOT AVBL
JAY*             N/A     55  48  76 SE7       30.29S
DUKE FIELD       N/A    N/A N/A N/A SE6         N/A
CRESTVIEW      MOCLDY    51  47  86 CALM      30.31S
VALPARAISO     MOCLDY    63  53  69 S8        30.30R
DESTIN         CLOUDY    64  53  67 S7        30.30S

$$

MSZ076-079-300400-
INTERIOR SOUTHEAST MISSISSIPPI

CITY           SKY/WX    TMP DP  RH WIND       PRES   REMARKS
LEAKESVILLE*   NOT AVBL
AGRICOLA*      NOT AVBL

$$

MARINE OBSERVATIONS

STATION/POSITION TIME  TEMP    WIND        PRES    WAVE
                       AIR SEA DIR/SP/G            HT/PER
                 (UTC) (F)     (DEG/KT/KT) (MB)    (FT/S)
PASCAGOULA       0200   67     160/  7/  9 1024.1R
PETIT BOIS ISLND 0200   67     170/ 11/ 12 1024.5R
GRAND BAY        0100   65     150/ 10     1024.0F
KATRINA CUT      0200   67     170/ 13     1025.1S
CEDAR POINT      0200   66     160/ 10     1024.0F
E DAUPHIN ISLAND 0300   67     160/ 12/ 13 1024.2S
MIDDLE BAY LIGHT 0200          130/  8     1024.0R
USCG MOBILE BAY  0200   63 64  120/  5/  6 1023.7R
STATE DOCKS      0212   63 62              1024.5R
MEAHER PARK      0200   62     100/  3     1025.1R
WEEKS BAY        0100   62                   N/A
FORT MORGAN      0200   67     180/ 13/ 15 1024.0R
12 S ORANGE BCH  0250   68 67  170/ 14/ 16 1024.4R   3/ 5
PENSACOLA BAY    0200   67 68  170/  8/ 10 1025.5R
64 S DAUPHIN ISL 0250   69 70  170/ 16/ 19 1025.0R   3/ 4

$$

SELECTED LOCATIONS ACROSS THE REGION

CITY           SKY/WX    TMP DP  RH WIND       PRES   REMARKS
NEW ORLEANS    MOCLDY    67  63  87 S8        30.22R
GULFPORT       CLEAR     67  61  81 S8        30.23S
PASCAGOULA AP  PTCLDY    65  60  84 S7        30.24F
PASCAGOULA*    NOT AVBL
HATTIESBURG    PTCLDY    64  58  80 S9        30.22S
LAUREL         PTCLDY    63  55  77 S10       30.22R
MERIDIAN       PTCLDY    62  55  77 S16G24    30.18R
JACKSON        CLEAR     68  58  70 S16G23    30.13R
MONTGOMERY     CLEAR     59  42  53 MISG      30.25S
TROY           CLEAR     56  43  61 S7        30.28R
KINSTON*       NOT AVBL
GENEVA*          N/A     54  45  71 CALM      30.33R
ASHFORD*         N/A     55  48  76 S6        30.28S
DOTHAN         CLEAR     56  42  59 SW8       30.33R
PANAMA CITY    MOCLDY    56  50  80 SE3       30.31R

$$



USA.gov is the U.S. government's official web portal to all federal, state and local government web resources and services.